Notices

What's New in latest Release from April 7th, 2021:

- Updated Glossary, including Speed of Maximum Gust, and Total Hourly Precipitation

- Updated national and regional climate services offices contacts and prices information

- Addition of station inventory lists for 1981-2010, 1971-2000, and 1961-1990 Normals.

If you haven't already, please take our survey and provide feedback about our website: https://eccc.sondage-survey.ca/f/LanguageSelection.aspx?s=442ca660-fcf1-47c0-95a9-59707d6fd709

Hourly Data Report for April 08, 2021

WIARTON A
ONTARIO
Current Station Operator: NAVCAN

44°44'39.000" N
81°06'31.000" W
221.90 m
6119499
71633
YVV

Download Data

Hourly Data (April 2021)
Hourly Data Report for April 8, 2021
TIME
LST
Temp Definition
°C
Dew Point Definition
°C
Rel Hum Definition
%
Precip. Amount Definition
mm

Wind Dir Definition
10's deg

Wind Spd Definition
km/h
Visibility Definition
km
Stn Press Definition
kPa
Hmdx Definition


Wind Chill Definition


Weather Definition


00:00 12.9 2.2 48   13 14 24.1 98.68     LegendNANA
01:00 12.2 1.9 49   15 12 24.1 98.72     Clear
02:00 12.5 1.2 46   13 10 24.1 98.64     LegendNANA
03:00 12.6 1.8 48   12 9 24.1 98.63     LegendNANA
04:00 11.9 1.7 49   12 8 24.1 98.61     Clear
05:00 11.6 2.4 53   11 7 24.1 98.60     LegendNANA
06:00 6.4 2.7 77   2 3 24.1 98.59     LegendNANA
07:00 7.6 3.7 76   36 2 24.1 98.61     Mainly Clear
08:00 10.2 4.5 68   31 5 24.1 98.60     LegendNANA
09:00 17.3 7.3 51   14 16 24.1 98.59     LegendNANA
10:00 20.3 8.1 45   13 13 24.1 98.56     Mainly Clear
11:00 22.6 9.3 42   14 12 24.1 98.50     LegendNANA
12:00 17.4 7.5 52   2 9 24.1 98.42     LegendNANA
13:00 20.6 7.8 43   1 10 24.1 98.35     Mainly Clear
14:00 24.2 8.9 37   9 15 24.1 98.29 25   LegendNANA
15:00 24.6 10.1 40   10 24 24.1 98.21 26   LegendNANA
16:00 24.2 9.4 39   10 26 24.1 98.16 25   Mainly Clear
17:00 23.9 8.9 38   11 21 24.1 98.14 25   LegendNANA
18:00 22.2 8.8 42   10 22 24.1 98.14     LegendNANA
19:00 20.0 8.9 48   11 20 24.1 98.13     Mainly Clear
20:00 18.8 8.5 51   11 22 24.1 98.16     LegendNANA
21:00 18.4 8.4 52   11 23 24.1 98.15     LegendNANA
22:00 18.5 8.3 51   22 13 24.1 98.30     Cloudy
23:00 15.5 12.1 80   36 2 24.1 98.30     LegendNANA

Notes on Data Quality.

Legend

  • E = Estimated
  • M = Missing
  • NA = Not Available*
  • [empty] = Indicates an unobserved value
Date modified: